Simultaneous Nadir Overpasses (SNOs) Predictions

Prediction of SNOs between AQUA and METOP-A Satellite Orbit:

Table of predicted SNOs for the next 14.0 days since TLE Epoch: 12/2/2016
Index Date (AQUA) Time (AQUA) Lat,Lon (AQUA) SZA (AQUA ) Date (METOP-A) Time (METOP-A) Lat,Lon (METOP-A) SZA (METOP-A ) Distance(km) Time Diff (sec)
1 12/05/2016 10:52:21 73.76, 11.16 96.14 12/05/2016 10:51:15 73.74, 11.05 96.13 3.70 66
2 12/05/2016 11:41:49 -73.86, 178.57 83.75 12/05/2016 11:41:55 -73.86, 178.64 83.76 2.41 6
3 12/05/2016 12:31:19 74.01, -14.13 96.41 12/05/2016 12:32:31 74.02, -13.62 96.41 15.54 72
4 12/08/2016 06:26:36 73.76, 77.61 96.46 12/08/2016 06:25:36 73.76, 77.51 96.47 3.13 60
5 12/08/2016 07:16:04 -73.86,-114.98 83.44 12/08/2016 07:16:16 -73.87,-114.90 83.42 3.04 12
6 12/08/2016 08:05:39 74.27, 51.72 97.00 12/08/2016 08:06:48 74.23, 53.32 96.93 48.68 69
7 12/11/2016 02:00:51 73.77, 144.03 96.73 12/11/2016 01:59:57 73.77, 143.95 96.74 2.44 54
8 12/11/2016 02:50:19 -73.87, -48.55 83.17 12/11/2016 02:50:38 -73.84, -48.57 83.19 2.92 19
9 12/11/2016 03:39:58 74.49, 117.64 97.49 12/11/2016 03:41:04 74.49, 120.40 97.44 82.02 66
10 12/13/2016 21:35:06 73.79,-149.58 96.95 12/13/2016 21:34:18 73.78,-149.61 96.95 1.34 48
11 12/13/2016 22:24:33 -73.83, 17.97 83.00 12/13/2016 22:24:59 -73.85, 17.87 82.98 3.54 26
12 12/16/2016 17:09:20 73.82, -83.20 97.13 12/16/2016 17:08:38 73.79, -83.18 97.10 3.52 42
13 12/16/2016 17:58:47 -73.86, 84.35 82.83 12/16/2016 17:59:19 -73.86, 84.31 82.84 1.27 32




NCC Satellite Simultaneous Nadir Overpasses (SNOs) Prediction Service
